Location: Chevoux
(46.3801°N, 4.9476°E)
Time: 16:09:55
(UTC+00:00)

ERS-2 - Pass Details

Date: 28 January 2021
Orbit: 492 x 497 km, 98.6° (Epoch: 28 February)

Event Time Altitude Azimuth Distance (km) Brightness Sun altitude
Exits shadow 17:58:41 10° 24° (NNE) 1,719 4.5 -13.8°
Reaches altitude 10° 17:58:44 10° 24° (NNE) 1,697 4.5 -13.8°
Maximum altitude 18:02:18 52° 101° (ESE) 621 2.2 -14.4°
Drops below altitude 10° 18:05:50 10° 179° (S) 1,681 4.9 -15.0°
Sets 18:07:56 0° 184° (S) 2,558 5.9 -15.4°
